User: anonymous   Login
Location: Theydon Bois
(51.6750°N, 0.1050°E)
Time: 11:15:47
(UTC+00:00)
Language:

Cosmos 2341 Rocket - Orbit

View from above orbital plane
View from above orbital plane
View from above satellite
View from above satellite

Ground track
Ground track

The orbit data is extracted from the following two-line orbital elements,

1 24773U 97017B   17350.17954323  .00000056  00000-0  43420-4 0  9995
2 24773  82.9226 238.7129 0024707 153.9049 315.4532 13.73598852 35885
Epoch (UTC): 16 December 2017 04:18:32
Eccentricity: 0.0024707
inclination: 82.9226°
perigee height: 968 km
apogee height: 1005 km
right ascension of ascending node: 238.7129°
argument of perigee: 153.9049°
revolutions per day: 13.73598852
mean anomaly at epoch: 315.4532°
orbit number at epoch: 3588

The dashed part of the orbit path shows where the satellite is in the earth's shadow,  

DLR